Home   Weather   Fauske   Past weeks

Flag for Norway Past Weather in Fauske, Norway — Yesterday and Last 2 Weeks

Now
34 °F

Scattered showers. Passing clouds.


Feels Like: 18 °F
Forecast: 26 / 30 °F
Wind: 40 mph from West

Location: Bodo Vi

Current Time: Jan 19, 2017 at 9:51:27 am

Latest Report: Jan 19, 2017 at 9:20 am


Visibility: N/A

Pressure: 29.42 "Hg

Humidity: 93%

Dew Point: 32 °F

Location of FauskeLocation

Past Weather in Fauske — Graph

°F

Fauske Temperature Yesterday

Maximum temperature yesterday: 46 °F (at 11:50 am)
Minimum temperature yesterday: 37 °F (at 4:50 am)
Average temperature yesterday: 41 °F

High & Low Weather Summary for the Past Weeks

 TemperatureHumidityPressure
High46 °F (Jan 18, 11:50 am)100% (Jan 6, 9:50 pm)30.36 "Hg (Jan 6, 9:50 pm)
Low10 °F (Jan 4, 7:20 pm)56% (Jan 14, 8:20 am)28.65 "Hg (Jan 11, 9:20 pm)
Average34 °F81%29.53 "Hg
* Reported Jan 4 8:20 am — Jan 19 8:20 am, Fauske, Weather by CustomWeather, © 2017

Note: Actual official high and low records may vary slightly from our data, if they occured in-between our weather recording intervals... More about our weather records

Advertising

Fauske Weather History for the Previous 24 Hours

Scroll right to see more
 ConditionsComfort  
Time TempWeatherWind HumidityBarometerVisibility
8:20 am
Thu, Jan 19
36 °FPassing clouds.41 mph87%29.42 "HgN/A
7:50 am36 °FSprinkles. Partly cloudy.39 mph87%29.42 "Hg5 mi
7:20 am37 °FPassing clouds.44 mph87%29.42 "HgN/A
6:50 am37 °FPassing clouds.36 mph93%29.42 "HgN/A
6:20 am36 °FSprinkles. Partly cloudy.38 mph100%29.42 "Hg6 mi
5:50 am39 °FRain showers. Passing clouds.45 mph93%29.42 "Hg5 mi
5:20 am37 °FSprinkles. Partly cloudy.43 mph100%29.42 "HgN/A
4:50 am43 °FSprinkles. Partly cloudy.41 mph87%29.36 "HgN/A
3:50 am41 °FSprinkles. Partly cloudy.38 mph93%29.47 "HgN/A
2:50 am39 °FPartly cloudy.33 mph87%29.53 "HgN/A
1:50 am37 °FSprinkles. Partly cloudy.20 mph93%29.59 "Hg5 mi
12:50 am37 °FSprinkles. Partly cloudy.20 mph93%29.65 "HgN/A
11:50 pm
Wed, Jan 18
39 °FPartly cloudy.18 mph81%29.65 "HgN/A
11:20 pm39 °FPartly cloudy.21 mph81%29.65 "HgN/A
10:50 pm39 °FPassing clouds.23 mph87%29.65 "HgN/A
10:20 pm39 °FPassing clouds.18 mph87%29.62 "HgN/A
9:50 pm39 °FPassing clouds.20 mph87%29.59 "HgN/A
9:20 pm41 °FPassing clouds.22 mph81%29.56 "HgN/A
8:50 pm41 °FPassing clouds.28 mph81%29.50 "HgN/A
8:20 pm41 °FPassing clouds.35 mph87%29.45 "HgN/A
7:50 pm43 °FScattered showers. Partly cloudy.39 mph87%29.39 "HgN/A
7:20 pm43 °FSprinkles. Partly cloudy.39 mph87%29.36 "HgN/A
6:50 pm43 °FMixture of precip. Partly cloudy.43 mph93%29.36 "HgN/A
6:20 pm45 °FScattered showers. Partly cloudy.41 mph87%29.33 "HgN/A
5:50 pm43 °FRain showers. Partly cloudy.39 mph93%29.33 "Hg4 mi
5:20 pm45 °FScattered showers. Partly cloudy.41 mph87%29.36 "HgN/A
4:50 pm45 °FScattered showers. Partly cloudy.39 mph93%29.36 "HgN/A
4:20 pm45 °FRain showers. Partly cloudy.40 mph93%29.39 "Hg4 mi
3:50 pm45 °FRain showers. Partly cloudy.43 mph100%29.39 "Hg3 mi
3:20 pm46 °FScattered showers. Partly cloudy.45 mph93%29.39 "Hg4 mi
2:50 pm46 °FScattered showers. Partly cloudy.40 mph93%29.39 "HgN/A
2:20 pm46 °FSprinkles. Passing clouds.38 mph87%29.42 "HgN/A
1:50 pm46 °FSprinkles. Broken clouds.35 mph87%29.45 "HgN/A
1:20 pm46 °FMixture of precip. Broken clouds.38 mph87%29.45 "HgN/A
12:50 pm46 °FSprinkles. Partly sunny.38 mph87%29.47 "HgN/A
12:20 pm46 °FSprinkles. Partly sunny.38 mph93%29.50 "HgN/A
11:50 am46 °FLight rain. Partly sunny.38 mph93%29.50 "HgN/A
11:20 am39 °FLight rain. Partly sunny.21 mph93%29.53 "HgN/A
10:50 am39 °FLight rain. Partly sunny.14 mph93%29.56 "Hg5 mi
10:20 am39 °FLight rain. Partly sunny.13 mph93%29.59 "HgN/A
9:50 am37 °FLight rain. Passing clouds.20 mph93%29.62 "HgN/A
9:20 am39 °FLight rain. Passing clouds.14 mph81%29.65 "HgN/A
Weather by CustomWeather, © 2017

See weather overviewHow to use our weather pages